Nautilus — OUYX2 — position and weather

sailwx.info

Track history (hours):
 
Tides and Currents Weather Stations Pressure Air Temp Water Temp Dewpoint Dewpoint Depression Visibility Wind Speed Wind Dir Waves Ship Positions

Nautilus

Last reported at 2014-Oct-29 14:03 UTC. Time now 2014-Oct-31 10:46 UTC.
Position N 58°19' E 005°31'.

Length 120 m; draft 5.9 m.

Type: Ship. MMSI: 219425000.

Date/timePositionNaut miles runAvg speedWind from/ knotsBaromVisibWave heightAir tempDewpointWater temp
2014-Oct-29 14:03N 58°19' E 005°31'510.1
2014-Oct-29 13:33N 58°16' E 005°38'1010.2
2014-Oct-29 12:31N 58°09' E 005°54'1010.7
2014-Oct-29 11:32N 58°02' E 006°09'125 8.3
2014-Oct-28 20:25N 57°49' E 010°03'6 7.3
2014-Oct-28 19:33N 57°49' E 010°15'9 8.6
2014-Oct-28 18:33N 57°50' E 010°31'9 9.3
2014-Oct-28 17:33N 57°48' E 010°48'1111.4
2014-Oct-28 16:33N 57°43' E 011°08'1111.4
2014-Oct-28 15:33N 57°39' E 011°27'10 9.9
2014-Oct-28 14:33N 57°40' E 011°46'4 4.3
2014-Oct-28 13:33N 57°41' E 011°53'0 0.0
2014-Oct-28 12:31N 57°41' E 011°53'0 0.0
2014-Oct-28 11:31N 57°41' E 011°53'0 0.0
2014-Oct-28 10:31N 57°41' E 011°53'0 0.0
2014-Oct-28 09:31N 57°41' E 011°53'0 0.0
2014-Oct-28 08:31N 57°41' E 011°53'0 0.0
2014-Oct-28 07:31N 57°41' E 011°53'0 0.0
2014-Oct-28 06:31N 57°41' E 011°53'0 0.0
2014-Oct-28 05:31N 57°41' E 011°53'0 0.0
2014-Oct-28 04:31N 57°41' E 011°53'0 0.0
2014-Oct-28 03:31N 57°41' E 011°53'0 0.0
2014-Oct-28 02:31N 57°41' E 011°53'0 0.0
2014-Oct-28 01:31N 57°41' E 011°53'0 0.0
2014-Oct-28 00:31N 57°41' E 011°53'0 0.0
2014-Oct-27 23:31N 57°41' E 011°53'0 0.0
2014-Oct-27 22:31N 57°41' E 011°53'3 2.9
2014-Oct-27 21:33N 57°40' E 011°48'9 8.7
2014-Oct-27 20:33N 57°33' E 011°38'1212.0
2014-Oct-27 19:33N 57°22' E 011°46'1211.6
2014-Oct-27 18:33N 57°11' E 011°55'1312.7
2014-Oct-27 17:33N 56°59' E 012°02'1312.8
2014-Oct-27 16:31N 56°47' E 012°09'1313.1
2014-Oct-27 15:33N 56°34' E 012°15'1313.0
2014-Oct-27 14:33N 56°22' E 012°22'1413.5
2014-Oct-27 13:33N 56°10' E 012°31'1212.2
2014-Oct-27 12:33N 55°59' E 012°42'1212.3
2014-Oct-27 11:33N 55°47' E 012°42'1111.0
2014-Oct-27 10:33N 55°36' E 012°42'1111.1
2014-Oct-27 09:33N 55°25' E 012°41'1010.2
2014-Oct-27 08:33N 55°16' E 012°51'1211.9
2014-Oct-27 07:33N 55°15' E 013°12'1111.3
2014-Oct-27 06:33N 55°15' E 013°32'1111.2
2014-Oct-27 05:33N 55°14' E 013°51'1111.4
2014-Oct-27 04:33N 55°14' E 014°11'1010.0
2014-Oct-27 03:33N 55°20' E 014°25'1111.1
2014-Oct-27 02:33N 55°28' E 014°38'1111.4
2014-Oct-27 01:33N 55°33' E 014°56'1111.4
2014-Oct-27 00:33N 55°38' E 015°14'1211.3
2014-Oct-26 23:30N 55°41' E 015°35'13110.9
2014-Oct-26 11:31N 56°38' E 019°06'  
2014-Oct-24 05:05N 57°07' E 019°28'3411.3
2014-Oct-24 02:06N 56°49' E 018°35'911.4
2014-Oct-24 01:19N 56°44' E 018°21'911.5
2014-Oct-24 00:32N 56°39' E 018°09'1311.8
2014-Oct-23 23:26N 56°31' E 017°50'1111.6
2014-Oct-23 22:27N 56°24' E 017°33'4511.4
2014-Oct-23 18:32N 55°59' E 016°26'16 1.0
2014-Oct-23 01:33N 56°11' E 016°07'1010.1
2014-Oct-23 00:33N 56°02' E 016°00'10 9.9
2014-Oct-22 23:34N 55°53' E 015°54'27 9.0
2014-Oct-22 20:33N 55°36' E 015°16'9 9.5
2014-Oct-22 19:33N 55°31' E 015°02'9 9.4
2014-Oct-22 18:33N 55°28' E 014°46'9 8.5
2014-Oct-22 17:33N 55°22' E 014°35'9 9.2
2014-Oct-22 16:33N 55°15' E 014°25'9 9.2
2014-Oct-22 15:33N 55°11' E 014°11'1010.0
2014-Oct-22 14:33N 55°11' E 013°54'1110.5
2014-Oct-22 13:29N 55°11' E 013°34'1210.8
2014-Oct-22 12:23N 55°12' E 013°13'910.7
2014-Oct-22 11:33N 55°13' E 012°58'1110.7
2014-Oct-22 10:33N 55°17' E 012°41'9 9.4
2014-Oct-22 09:33N 55°27' E 012°40'10 9.7
2014-Oct-22 08:33N 55°36' E 012°42'9 9.4
2014-Oct-22 07:33N 55°46' E 012°41'1110.7
2014-Oct-22 06:33N 55°56' E 012°38'9 9.1
2014-Oct-22 05:33N 56°05' E 012°35'9 9.0
2014-Oct-22 04:33N 56°11' E 012°22'9 9.4
2014-Oct-22 03:33N 56°11' E 012°05'6 0.2
2014-Oct-20 23:33N 56°10' E 011°55'1212.2
2014-Oct-20 22:33N 56°12' E 012°17'1110.9
2014-Oct-20 21:33N 56°06' E 012°34'1010.0
2014-Oct-20 20:33N 55°58' E 012°42'1110.9
2014-Oct-20 19:33N 55°47' E 012°48'1110.9
2014-Oct-20 18:33N 55°39' E 013°00'1 0.9
2014-Oct-20 17:32N 55°38' E 013°01'0 0.0
2014-Oct-20 16:20N 55°38' E 013°01'0 0.0
2014-Oct-20 15:32N 55°38' E 013°01'0 0.0
2014-Oct-20 14:29N 55°38' E 013°01'0 0.0
2014-Oct-20 13:32N 55°38' E 013°01'0 0.0
2014-Oct-20 12:29N 55°38' E 013°01'0 0.0
2014-Oct-20 11:32N 55°38' E 013°01'0 0.0
2014-Oct-20 10:29N 55°38' E 013°01'0 0.0
2014-Oct-20 09:32N 55°38' E 013°01'0 0.0
2014-Oct-20 08:32N 55°38' E 013°01'0 0.0
2014-Oct-20 07:30N 55°38' E 013°01'4 4.6
2014-Oct-20 06:34N 55°41' E 012°56'1110.7
2014-Oct-20 05:34N 55°49' E 012°43'9 9.1
2014-Oct-20 04:34N 55°58' E 012°40'1111.3
2014-Oct-20 03:34N 56°08' E 012°29'1111.3
2014-Oct-20 02:34N 56°12' E 012°11'  
Track history (hours):
 
Tides and Currents Weather Stations Pressure Air Temp Water Temp Dewpoint Dewpoint Depression Visibility Wind Speed Wind Dir Waves Ship Positions

Nautilus

Last reported at 2014-Oct-29 14:03 UTC. Time now 2014-Oct-31 10:46 UTC.
Position N 58°19' E 005°31'.

Length 120 m; draft 5.9 m.

Type: Ship. MMSI: 219425000.

Date/timePositionNaut miles runAvg speedWind from/ knotsBaromVisibWave heightAir tempDewpointWater temp
2014-Oct-29 14:03N 58°19' E 005°31'510.1
2014-Oct-29 13:33N 58°16' E 005°38'1010.2
2014-Oct-29 12:31N 58°09' E 005°54'1010.7
2014-Oct-29 11:32N 58°02' E 006°09'125 8.3
2014-Oct-28 20:25N 57°49' E 010°03'6 7.3
2014-Oct-28 19:33N 57°49' E 010°15'9 8.6
2014-Oct-28 18:33N 57°50' E 010°31'9 9.3
2014-Oct-28 17:33N 57°48' E 010°48'1111.4
2014-Oct-28 16:33N 57°43' E 011°08'1111.4
2014-Oct-28 15:33N 57°39' E 011°27'10 9.9
2014-Oct-28 14:33N 57°40' E 011°46'4 4.3
2014-Oct-28 13:33N 57°41' E 011°53'0 0.0
2014-Oct-28 12:31N 57°41' E 011°53'0 0.0
2014-Oct-28 11:31N 57°41' E 011°53'0 0.0
2014-Oct-28 10:31N 57°41' E 011°53'0 0.0
2014-Oct-28 09:31N 57°41' E 011°53'0 0.0
2014-Oct-28 08:31N 57°41' E 011°53'0 0.0
2014-Oct-28 07:31N 57°41' E 011°53'0 0.0
2014-Oct-28 06:31N 57°41' E 011°53'0 0.0
2014-Oct-28 05:31N 57°41' E 011°53'0 0.0
2014-Oct-28 04:31N 57°41' E 011°53'0 0.0
2014-Oct-28 03:31N 57°41' E 011°53'0 0.0
2014-Oct-28 02:31N 57°41' E 011°53'0 0.0
2014-Oct-28 01:31N 57°41' E 011°53'0 0.0
2014-Oct-28 00:31N 57°41' E 011°53'0 0.0
2014-Oct-27 23:31N 57°41' E 011°53'0 0.0
2014-Oct-27 22:31N 57°41' E 011°53'3 2.9
2014-Oct-27 21:33N 57°40' E 011°48'9 8.7
2014-Oct-27 20:33N 57°33' E 011°38'1212.0
2014-Oct-27 19:33N 57°22' E 011°46'1211.6
2014-Oct-27 18:33N 57°11' E 011°55'1312.7
2014-Oct-27 17:33N 56°59' E 012°02'1312.8
2014-Oct-27 16:31N 56°47' E 012°09'1313.1
2014-Oct-27 15:33N 56°34' E 012°15'1313.0
2014-Oct-27 14:33N 56°22' E 012°22'1413.5
2014-Oct-27 13:33N 56°10' E 012°31'1212.2
2014-Oct-27 12:33N 55°59' E 012°42'1212.3
2014-Oct-27 11:33N 55°47' E 012°42'1111.0
2014-Oct-27 10:33N 55°36' E 012°42'1111.1
2014-Oct-27 09:33N 55°25' E 012°41'1010.2
2014-Oct-27 08:33N 55°16' E 012°51'1211.9
2014-Oct-27 07:33N 55°15' E 013°12'1111.3
2014-Oct-27 06:33N 55°15' E 013°32'1111.2
2014-Oct-27 05:33N 55°14' E 013°51'1111.4
2014-Oct-27 04:33N 55°14' E 014°11'1010.0
2014-Oct-27 03:33N 55°20' E 014°25'1111.1
2014-Oct-27 02:33N 55°28' E 014°38'1111.4
2014-Oct-27 01:33N 55°33' E 014°56'1111.4
2014-Oct-27 00:33N 55°38' E 015°14'1211.3
2014-Oct-26 23:30N 55°41' E 015°35'13110.9
2014-Oct-26 11:31N 56°38' E 019°06'  
2014-Oct-24 05:05N 57°07' E 019°28'3411.3
2014-Oct-24 02:06N 56°49' E 018°35'911.4
2014-Oct-24 01:19N 56°44' E 018°21'911.5
2014-Oct-24 00:32N 56°39' E 018°09'1311.8
2014-Oct-23 23:26N 56°31' E 017°50'1111.6
2014-Oct-23 22:27N 56°24' E 017°33'4511.4
2014-Oct-23 18:32N 55°59' E 016°26'16 1.0
2014-Oct-23 01:33N 56°11' E 016°07'1010.1
2014-Oct-23 00:33N 56°02' E 016°00'10 9.9
2014-Oct-22 23:34N 55°53' E 015°54'27 9.0
2014-Oct-22 20:33N 55°36' E 015°16'9 9.5
2014-Oct-22 19:33N 55°31' E 015°02'9 9.4
2014-Oct-22 18:33N 55°28' E 014°46'9 8.5
2014-Oct-22 17:33N 55°22' E 014°35'9 9.2
2014-Oct-22 16:33N 55°15' E 014°25'9 9.2
2014-Oct-22 15:33N 55°11' E 014°11'1010.0
2014-Oct-22 14:33N 55°11' E 013°54'1110.5
2014-Oct-22 13:29N 55°11' E 013°34'1210.8
2014-Oct-22 12:23N 55°12' E 013°13'910.7
2014-Oct-22 11:33N 55°13' E 012°58'1110.7
2014-Oct-22 10:33N 55°17' E 012°41'9 9.4
2014-Oct-22 09:33N 55°27' E 012°40'10 9.7
2014-Oct-22 08:33N 55°36' E 012°42'9 9.4
2014-Oct-22 07:33N 55°46' E 012°41'1110.7
2014-Oct-22 06:33N 55°56' E 012°38'9 9.1
2014-Oct-22 05:33N 56°05' E 012°35'9 9.0
2014-Oct-22 04:33N 56°11' E 012°22'9 9.4
2014-Oct-22 03:33N 56°11' E 012°05'6 0.2
2014-Oct-20 23:33N 56°10' E 011°55'1212.2
2014-Oct-20 22:33N 56°12' E 012°17'1110.9
2014-Oct-20 21:33N 56°06' E 012°34'1010.0
2014-Oct-20 20:33N 55°58' E 012°42'1110.9
2014-Oct-20 19:33N 55°47' E 012°48'1110.9
2014-Oct-20 18:33N 55°39' E 013°00'1 0.9
2014-Oct-20 17:32N 55°38' E 013°01'0 0.0
2014-Oct-20 16:20N 55°38' E 013°01'0 0.0
2014-Oct-20 15:32N 55°38' E 013°01'0 0.0
2014-Oct-20 14:29N 55°38' E 013°01'0 0.0
2014-Oct-20 13:32N 55°38' E 013°01'0 0.0
2014-Oct-20 12:29N 55°38' E 013°01'0 0.0
2014-Oct-20 11:32N 55°38' E 013°01'0 0.0
2014-Oct-20 10:29N 55°38' E 013°01'0 0.0
2014-Oct-20 09:32N 55°38' E 013°01'0 0.0
2014-Oct-20 08:32N 55°38' E 013°01'0 0.0
2014-Oct-20 07:30N 55°38' E 013°01'4 4.6
2014-Oct-20 06:34N 55°41' E 012°56'1110.7
2014-Oct-20 05:34N 55°49' E 012°43'9 9.1
2014-Oct-20 04:34N 55°58' E 012°40'1111.3
2014-Oct-20 03:34N 56°08' E 012°29'1111.3
2014-Oct-20 02:34N 56°12' E 012°11'  

Dump ship's entire track history